Year,Month,Day,Hour,Minute,Value (Times are PST for temperature in C)
2021,08,03,00,00,16.80
2021,08,03,00,01,16.80
2021,08,03,00,02,16.70
2021,08,03,00,03,16.70
2021,08,03,00,04,16.70
2021,08,03,00,05,16.70
2021,08,03,00,06,16.70
2021,08,03,00,07,16.70
2021,08,03,00,08,16.70
2021,08,03,00,09,16.60
2021,08,03,00,10,16.60
2021,08,03,00,11,16.60
2021,08,03,00,12,16.60
2021,08,03,00,13,16.60
2021,08,03,00,14,16.60
2021,08,03,00,15,16.60
2021,08,03,00,16,16.60
2021,08,03,00,17,16.50
2021,08,03,00,18,16.60
2021,08,03,00,19,16.50
2021,08,03,00,20,16.50
2021,08,03,00,21,16.50
2021,08,03,00,22,16.60
2021,08,03,00,23,16.60
2021,08,03,00,24,16.60
2021,08,03,00,25,16.60
2021,08,03,00,26,16.60
2021,08,03,00,27,16.60
2021,08,03,00,28,16.60
2021,08,03,00,29,16.60
2021,08,03,00,30,16.60
2021,08,03,00,31,16.60
2021,08,03,00,32,16.60
2021,08,03,00,33,16.60
2021,08,03,00,34,16.60
2021,08,03,00,35,16.50
2021,08,03,00,36,16.50
2021,08,03,00,37,16.50
2021,08,03,00,38,16.50
2021,08,03,00,39,16.40
2021,08,03,00,40,16.40
2021,08,03,00,41,16.40
2021,08,03,00,42,16.40
2021,08,03,00,43,16.40
2021,08,03,00,44,16.40
2021,08,03,00,45,16.40
2021,08,03,00,46,16.40
2021,08,03,00,47,16.40
2021,08,03,00,48,16.40
2021,08,03,00,49,16.40
2021,08,03,00,50,16.40
2021,08,03,00,51,16.40
2021,08,03,00,52,16.40
2021,08,03,00,53,16.40
2021,08,03,00,54,16.40
2021,08,03,00,55,16.40
2021,08,03,00,56,16.40
2021,08,03,00,57,16.40
2021,08,03,00,58,16.40
2021,08,03,00,59,16.40
2021,08,03,01,00,16.40
2021,08,03,01,01,16.40
2021,08,03,01,02,16.40
2021,08,03,01,03,16.40
2021,08,03,01,04,16.40
2021,08,03,01,05,16.40
2021,08,03,01,06,16.40
2021,08,03,01,07,16.40
2021,08,03,01,08,16.30
2021,08,03,01,09,16.30
2021,08,03,01,10,16.30
2021,08,03,01,11,16.30
2021,08,03,01,12,16.30
2021,08,03,01,13,16.30
2021,08,03,01,14,16.30
2021,08,03,01,15,16.20
2021,08,03,01,16,16.20
2021,08,03,01,17,16.20
2021,08,03,01,18,16.20
2021,08,03,01,19,16.20
2021,08,03,01,20,16.20
2021,08,03,01,21,16.20
2021,08,03,01,22,16.20
2021,08,03,01,23,16.20
2021,08,03,01,24,16.20
2021,08,03,01,25,16.20
2021,08,03,01,26,16.20
2021,08,03,01,27,16.20
2021,08,03,01,28,16.20
2021,08,03,01,29,16.20
2021,08,03,01,30,16.20
2021,08,03,01,31,16.20
2021,08,03,01,32,16.20
2021,08,03,01,33,16.20
2021,08,03,01,34,16.20
2021,08,03,01,35,16.20
2021,08,03,01,36,16.10
2021,08,03,01,37,16.20
2021,08,03,01,38,16.20
2021,08,03,01,39,16.20
2021,08,03,01,40,16.20
2021,08,03,01,41,16.20
2021,08,03,01,42,16.10
2021,08,03,01,43,16.10
2021,08,03,01,44,16.10
2021,08,03,01,45,16.10
2021,08,03,01,46,16.10
2021,08,03,01,47,16.10
2021,08,03,01,48,16.10
2021,08,03,01,49,16.00
2021,08,03,01,50,16.00
2021,08,03,01,51,16.00
2021,08,03,01,52,16.00
2021,08,03,01,53,16.00
2021,08,03,01,54,16.00
2021,08,03,01,55,15.90
2021,08,03,01,56,15.90
2021,08,03,01,57,15.90
2021,08,03,01,58,15.90
2021,08,03,01,59,15.90
2021,08,03,02,00,15.90
2021,08,03,02,01,15.80
2021,08,03,02,02,15.80
2021,08,03,02,03,15.80
2021,08,03,02,04,15.80
2021,08,03,02,05,15.80
2021,08,03,02,06,15.80
2021,08,03,02,07,15.80
2021,08,03,02,08,15.70
2021,08,03,02,09,15.70
2021,08,03,02,10,15.70
2021,08,03,02,11,15.70
2021,08,03,02,12,15.70
2021,08,03,02,13,15.60
2021,08,03,02,14,15.60
2021,08,03,02,15,15.60
2021,08,03,02,16,15.60
2021,08,03,02,17,15.60
2021,08,03,02,18,15.60
2021,08,03,02,19,15.60
2021,08,03,02,20,15.60
2021,08,03,02,21,15.60
2021,08,03,02,22,15.60
2021,08,03,02,23,15.60
2021,08,03,02,24,15.60
2021,08,03,02,25,15.60
2021,08,03,02,26,15.60
2021,08,03,02,27,15.60
2021,08,03,02,28,15.60
2021,08,03,02,29,15.60
2021,08,03,02,30,15.60
2021,08,03,02,31,15.60
2021,08,03,02,32,15.60
2021,08,03,02,33,15.60
2021,08,03,02,34,15.60
2021,08,03,02,35,15.70
2021,08,03,02,36,15.70
2021,08,03,02,37,15.70
2021,08,03,02,38,15.70
2021,08,03,02,39,15.70
2021,08,03,02,40,15.70
2021,08,03,02,41,15.70
2021,08,03,02,42,15.70
2021,08,03,02,43,15.70
2021,08,03,02,44,15.70
2021,08,03,02,45,15.70
2021,08,03,02,46,15.70
2021,08,03,02,47,15.70
2021,08,03,02,48,15.70
2021,08,03,02,49,15.70
2021,08,03,02,50,15.70
2021,08,03,02,51,15.70
2021,08,03,02,52,15.70
2021,08,03,02,53,15.70
2021,08,03,02,54,15.60
2021,08,03,02,55,15.60
2021,08,03,02,56,15.60
2021,08,03,02,57,15.60
2021,08,03,02,58,15.60
2021,08,03,02,59,15.60
2021,08,03,03,00,15.60
2021,08,03,03,01,15.60
2021,08,03,03,02,15.60
2021,08,03,03,03,15.60
2021,08,03,03,04,15.60
2021,08,03,03,05,15.60
2021,08,03,03,06,15.60
2021,08,03,03,07,15.50
2021,08,03,03,08,15.50
2021,08,03,03,09,15.50
2021,08,03,03,10,15.50
2021,08,03,03,11,15.50
2021,08,03,03,12,15.40
2021,08,03,03,13,15.40
2021,08,03,03,14,15.40
2021,08,03,03,15,15.40
2021,08,03,03,16,15.40
2021,08,03,03,17,15.40
2021,08,03,03,18,15.50
2021,08,03,03,19,15.50
2021,08,03,03,20,15.50
2021,08,03,03,21,15.50
2021,08,03,03,22,15.50
2021,08,03,03,23,15.60
2021,08,03,03,24,15.60
2021,08,03,03,25,15.60
2021,08,03,03,26,15.60
2021,08,03,03,27,15.60
2021,08,03,03,28,15.60
2021,08,03,03,29,15.60
2021,08,03,03,30,15.70
2021,08,03,03,31,15.70
2021,08,03,03,32,15.70
2021,08,03,03,33,15.70
2021,08,03,03,34,15.70
2021,08,03,03,35,15.70
2021,08,03,03,36,15.60
2021,08,03,03,37,15.60
2021,08,03,03,38,15.60
2021,08,03,03,39,15.60
2021,08,03,03,40,15.60
2021,08,03,03,41,15.60
2021,08,03,03,42,15.60
2021,08,03,03,43,15.60
2021,08,03,03,44,15.60
2021,08,03,03,45,15.60
2021,08,03,03,46,15.60
2021,08,03,03,47,15.60
2021,08,03,03,48,15.60
2021,08,03,03,49,15.60
2021,08,03,03,50,15.60
2021,08,03,03,51,15.60
2021,08,03,03,52,15.60
2021,08,03,03,53,15.60
2021,08,03,03,54,15.60
2021,08,03,03,55,15.60
2021,08,03,03,56,15.60
2021,08,03,03,57,15.60
2021,08,03,03,58,15.60
2021,08,03,03,59,15.60
2021,08,03,04,00,15.60
2021,08,03,04,01,15.60
2021,08,03,04,02,15.60
2021,08,03,04,03,15.60
2021,08,03,04,04,15.60
2021,08,03,04,05,15.60
2021,08,03,04,06,15.60
2021,08,03,04,07,15.60
2021,08,03,04,08,15.60
2021,08,03,04,09,15.60
2021,08,03,04,10,15.60
2021,08,03,04,11,15.60
2021,08,03,04,12,15.60
2021,08,03,04,13,15.60
2021,08,03,04,14,15.60
2021,08,03,04,15,15.60
2021,08,03,04,16,15.60
2021,08,03,04,17,15.60
2021,08,03,04,18,15.70
2021,08,03,04,19,15.70
2021,08,03,04,20,15.70
2021,08,03,04,21,15.70
2021,08,03,04,22,15.70
2021,08,03,04,23,15.70
2021,08,03,04,24,15.70
2021,08,03,04,25,15.70
2021,08,03,04,26,15.70
2021,08,03,04,27,15.70
2021,08,03,04,28,15.70
2021,08,03,04,29,15.70
2021,08,03,04,30,15.70
2021,08,03,04,31,15.70
2021,08,03,04,32,15.70
2021,08,03,04,33,15.70
2021,08,03,04,34,15.70
2021,08,03,04,35,15.70
2021,08,03,04,36,15.70
2021,08,03,04,37,15.70
2021,08,03,04,38,15.70
2021,08,03,04,39,15.70
2021,08,03,04,40,15.60
2021,08,03,04,41,15.60
2021,08,03,04,42,15.60
2021,08,03,04,43,15.60
2021,08,03,04,44,15.60
2021,08,03,04,45,15.60
2021,08,03,04,46,15.70
2021,08,03,04,47,15.70
2021,08,03,04,48,15.70
2021,08,03,04,49,15.70
2021,08,03,04,50,15.70
2021,08,03,04,51,15.70
2021,08,03,04,52,15.70
2021,08,03,04,53,15.70
2021,08,03,04,54,15.70
2021,08,03,04,55,15.70
2021,08,03,04,56,15.70
2021,08,03,04,57,15.70
2021,08,03,04,58,15.70
2021,08,03,04,59,15.70
2021,08,03,05,00,15.70
2021,08,03,05,01,15.70
2021,08,03,05,02,15.70
2021,08,03,05,03,15.70
2021,08,03,05,04,15.70
2021,08,03,05,05,15.70
2021,08,03,05,06,15.70
2021,08,03,05,07,15.70
2021,08,03,05,08,15.70
2021,08,03,05,09,15.70
2021,08,03,05,10,15.70
2021,08,03,05,11,15.70
2021,08,03,05,12,15.70
2021,08,03,05,13,15.70
2021,08,03,05,14,15.70
2021,08,03,05,15,15.70
2021,08,03,05,16,15.70
2021,08,03,05,17,15.70
2021,08,03,05,18,15.70
2021,08,03,05,19,15.70
2021,08,03,05,20,15.70
2021,08,03,05,21,15.70
2021,08,03,05,22,15.80
2021,08,03,05,23,15.80
2021,08,03,05,24,15.80
2021,08,03,05,25,15.80
2021,08,03,05,26,15.80
2021,08,03,05,27,15.80
2021,08,03,05,28,15.80
2021,08,03,05,29,15.70
2021,08,03,05,30,15.80
2021,08,03,05,31,15.70
2021,08,03,05,32,15.70
2021,08,03,05,33,15.80
2021,08,03,05,34,15.80
2021,08,03,05,35,15.80
2021,08,03,05,36,15.80
2021,08,03,05,37,15.80
2021,08,03,05,38,15.80
2021,08,03,05,39,15.80
2021,08,03,05,40,15.80
2021,08,03,05,41,15.80
2021,08,03,05,42,15.80
2021,08,03,05,43,15.80
2021,08,03,05,44,15.70
2021,08,03,05,45,15.70
2021,08,03,05,46,15.80
2021,08,03,05,47,15.80
2021,08,03,05,48,15.80
2021,08,03,05,49,15.80
2021,08,03,05,50,15.80
2021,08,03,05,51,15.80
2021,08,03,05,52,15.80
2021,08,03,05,53,15.80
2021,08,03,05,54,15.80
2021,08,03,05,55,15.80
2021,08,03,05,56,15.80
2021,08,03,05,57,15.70
2021,08,03,05,58,15.70
2021,08,03,05,59,15.70
2021,08,03,06,00,15.70
2021,08,03,06,01,15.70
2021,08,03,06,02,15.70
2021,08,03,06,03,15.70
2021,08,03,06,04,15.70
2021,08,03,06,05,15.70
2021,08,03,06,06,15.70
2021,08,03,06,07,15.70
2021,08,03,06,08,15.70
2021,08,03,06,09,15.70
2021,08,03,06,10,15.70
2021,08,03,06,11,15.70
2021,08,03,06,12,15.70
2021,08,03,06,13,15.70
2021,08,03,06,14,15.70
2021,08,03,06,15,15.70
2021,08,03,06,16,15.70
2021,08,03,06,17,15.70
2021,08,03,06,18,15.70
2021,08,03,06,19,15.80
2021,08,03,06,20,15.80
2021,08,03,06,21,15.80
2021,08,03,06,22,15.80
2021,08,03,06,23,15.80
2021,08,03,06,24,15.80
2021,08,03,06,25,15.80
2021,08,03,06,26,15.80
2021,08,03,06,27,15.80
2021,08,03,06,28,15.80
2021,08,03,06,29,15.80
2021,08,03,06,30,15.80
2021,08,03,06,31,15.80
2021,08,03,06,32,15.80
2021,08,03,06,33,15.80
2021,08,03,06,34,15.80
2021,08,03,06,35,15.80
2021,08,03,06,36,15.80
2021,08,03,06,37,15.80
2021,08,03,06,38,15.80
2021,08,03,06,39,15.80
2021,08,03,06,40,15.80
2021,08,03,06,41,15.80
2021,08,03,06,42,15.80
2021,08,03,06,43,15.80
2021,08,03,06,44,15.80
2021,08,03,06,45,15.80
2021,08,03,06,46,15.80
2021,08,03,06,47,15.90
2021,08,03,06,48,15.90
2021,08,03,06,49,15.90
2021,08,03,06,50,15.90
2021,08,03,06,51,15.90
2021,08,03,06,52,15.90
2021,08,03,06,53,15.90
2021,08,03,06,54,15.90
2021,08,03,06,55,15.90
2021,08,03,06,56,15.90
2021,08,03,06,57,15.90
2021,08,03,06,58,15.90
2021,08,03,06,59,15.90
2021,08,03,07,00,15.90
2021,08,03,07,01,15.90
2021,08,03,07,02,15.90
2021,08,03,07,03,15.90
2021,08,03,07,04,16.00
2021,08,03,07,05,16.00
2021,08,03,07,06,16.00
2021,08,03,07,07,16.00
2021,08,03,07,08,16.00
2021,08,03,07,09,16.10
2021,08,03,07,10,16.10
2021,08,03,07,11,16.10
2021,08,03,07,12,16.10
2021,08,03,07,13,16.10
2021,08,03,07,14,16.10
2021,08,03,07,15,16.10
2021,08,03,07,16,16.20
2021,08,03,07,17,16.20
2021,08,03,07,18,16.20
2021,08,03,07,19,16.20
2021,08,03,07,20,16.20
2021,08,03,07,21,16.30
2021,08,03,07,22,16.30
2021,08,03,07,23,16.30
2021,08,03,07,24,16.30
2021,08,03,07,25,16.40
2021,08,03,07,26,16.40
2021,08,03,07,27,16.40
2021,08,03,07,28,16.50
2021,08,03,07,29,16.50
2021,08,03,07,30,16.60
2021,08,03,07,31,16.60
2021,08,03,07,32,16.60
2021,08,03,07,33,16.70
2021,08,03,07,34,16.70
2021,08,03,07,35,16.70
2021,08,03,07,36,16.80
2021,08,03,07,37,16.80
2021,08,03,07,38,16.80
2021,08,03,07,39,16.80
2021,08,03,07,40,16.90
2021,08,03,07,41,17.00
2021,08,03,07,42,17.00
2021,08,03,07,43,17.10
2021,08,03,07,44,17.20
2021,08,03,07,45,17.30
2021,08,03,07,46,17.30
2021,08,03,07,47,17.40
2021,08,03,07,48,17.50
2021,08,03,07,49,17.50
2021,08,03,07,50,17.60
2021,08,03,07,51,17.60
2021,08,03,07,52,17.70
2021,08,03,07,53,17.70
2021,08,03,07,54,17.70
2021,08,03,07,55,17.80
2021,08,03,07,56,17.80
2021,08,03,07,57,17.80
2021,08,03,07,58,17.90
2021,08,03,07,59,17.90
2021,08,03,08,00,17.90
2021,08,03,08,01,17.90
2021,08,03,08,02,17.90
2021,08,03,08,03,18.00
2021,08,03,08,04,18.00
2021,08,03,08,05,18.00
2021,08,03,08,06,18.00
2021,08,03,08,07,18.10
2021,08,03,08,08,18.10
2021,08,03,08,09,18.10
2021,08,03,08,10,18.20
2021,08,03,08,11,18.20
2021,08,03,08,12,18.20
2021,08,03,08,13,18.20
2021,08,03,08,14,18.30
2021,08,03,08,15,18.30
2021,08,03,08,16,18.30
2021,08,03,08,17,18.30
2021,08,03,08,18,18.40
2021,08,03,08,19,18.40
2021,08,03,08,20,18.40
2021,08,03,08,21,18.40
2021,08,03,08,22,18.40
2021,08,03,08,23,18.40
2021,08,03,08,24,18.40
2021,08,03,08,25,18.50
2021,08,03,08,26,18.50
2021,08,03,08,27,18.50
2021,08,03,08,28,18.40
2021,08,03,08,29,18.40
2021,08,03,08,30,18.40
2021,08,03,08,31,18.40
2021,08,03,08,32,18.40
2021,08,03,08,33,18.40
2021,08,03,08,34,18.30
2021,08,03,08,35,18.40
2021,08,03,08,36,18.40
2021,08,03,08,37,18.40
2021,08,03,08,38,18.40
2021,08,03,08,39,18.40
2021,08,03,08,40,18.40
2021,08,03,08,41,18.50
2021,08,03,08,42,18.50
2021,08,03,08,43,18.60
2021,08,03,08,44,18.60
2021,08,03,08,45,18.60
2021,08,03,08,46,18.60
2021,08,03,08,47,18.60
2021,08,03,08,48,18.70
2021,08,03,08,49,18.70
2021,08,03,08,50,18.70
2021,08,03,08,51,18.70
2021,08,03,08,52,18.70
2021,08,03,08,53,18.70
2021,08,03,08,54,18.70
2021,08,03,08,55,18.70
2021,08,03,08,56,18.70
2021,08,03,08,57,18.70
2021,08,03,08,58,18.70
2021,08,03,08,59,18.70
2021,08,03,09,00,18.70
2021,08,03,09,01,18.70
2021,08,03,09,02,18.70
2021,08,03,09,03,18.70
2021,08,03,09,04,18.70
2021,08,03,09,05,18.70
2021,08,03,09,06,18.70
2021,08,03,09,07,18.70
2021,08,03,09,08,18.70
2021,08,03,09,09,18.70
2021,08,03,09,10,18.80
2021,08,03,09,11,18.80
2021,08,03,09,12,18.80
2021,08,03,09,13,18.80
2021,08,03,09,14,18.80
2021,08,03,09,15,18.90
2021,08,03,09,16,18.90
2021,08,03,09,17,19.00
2021,08,03,09,18,19.00
2021,08,03,09,19,19.10
2021,08,03,09,20,19.10
2021,08,03,09,21,19.20
2021,08,03,09,22,19.20
2021,08,03,09,23,19.30
2021,08,03,09,24,19.30
2021,08,03,09,25,19.40
2021,08,03,09,26,19.50
2021,08,03,09,27,19.50
2021,08,03,09,28,19.60
2021,08,03,09,29,19.70
2021,08,03,09,30,19.80
2021,08,03,09,31,19.90
2021,08,03,09,32,19.90
2021,08,03,09,33,20.00
2021,08,03,09,34,20.10
2021,08,03,09,35,20.10
2021,08,03,09,36,20.10
2021,08,03,09,37,20.10
2021,08,03,09,38,20.20
2021,08,03,09,39,20.20
2021,08,03,09,40,20.20
2021,08,03,09,41,20.20
2021,08,03,09,42,20.20
2021,08,03,09,43,20.10
2021,08,03,09,44,20.00
2021,08,03,09,45,20.00
2021,08,03,09,46,20.00
2021,08,03,09,47,19.90
2021,08,03,09,48,19.90
2021,08,03,09,49,19.90
2021,08,03,09,50,19.80
2021,08,03,09,51,19.80
2021,08,03,09,52,19.80
2021,08,03,09,53,19.80
2021,08,03,09,54,19.80
2021,08,03,09,55,19.80
2021,08,03,09,56,19.80
2021,08,03,09,57,19.80
2021,08,03,09,58,19.80
2021,08,03,09,59,19.80
2021,08,03,10,00,19.70
2021,08,03,10,01,19.70
2021,08,03,10,02,19.70
2021,08,03,10,03,19.70
2021,08,03,10,04,19.70
2021,08,03,10,05,19.80
2021,08,03,10,06,19.80
2021,08,03,10,07,19.80
2021,08,03,10,08,19.80
2021,08,03,10,09,19.70
2021,08,03,10,10,19.70
2021,08,03,10,11,19.70
2021,08,03,10,12,19.70
2021,08,03,10,13,19.70
2021,08,03,10,14,19.70
2021,08,03,10,15,19.70
2021,08,03,10,16,19.70
2021,08,03,10,17,19.70
2021,08,03,10,18,19.70
2021,08,03,10,19,19.70
2021,08,03,10,20,19.70
2021,08,03,10,21,19.70
2021,08,03,10,22,19.70
2021,08,03,10,23,19.70
2021,08,03,10,24,19.70
2021,08,03,10,25,19.70
2021,08,03,10,26,19.70
2021,08,03,10,27,19.70
2021,08,03,10,28,19.70
2021,08,03,10,29,19.70
2021,08,03,10,30,19.80
2021,08,03,10,31,19.80
2021,08,03,10,32,19.90
2021,08,03,10,33,20.00
2021,08,03,10,34,20.10
2021,08,03,10,35,20.10
2021,08,03,10,36,20.20
2021,08,03,10,37,20.30
2021,08,03,10,38,20.40
2021,08,03,10,39,20.40
2021,08,03,10,40,20.50
2021,08,03,10,41,20.60
2021,08,03,10,42,20.60
2021,08,03,10,43,20.70
2021,08,03,10,44,20.70
2021,08,03,10,45,20.70
2021,08,03,10,46,20.70
2021,08,03,10,47,20.70
2021,08,03,10,48,20.70
2021,08,03,10,49,20.70
2021,08,03,10,50,20.70
2021,08,03,10,51,20.70
2021,08,03,10,52,20.70
2021,08,03,10,53,20.70
2021,08,03,10,54,20.70
2021,08,03,10,55,20.80
2021,08,03,10,56,20.80
2021,08,03,10,57,20.80
2021,08,03,10,58,20.80
2021,08,03,10,59,20.80
2021,08,03,11,00,20.70
2021,08,03,11,01,20.70
2021,08,03,11,02,20.70
2021,08,03,11,03,20.70
2021,08,03,11,04,20.70
2021,08,03,11,05,20.70
2021,08,03,11,06,20.60
2021,08,03,11,07,20.60
2021,08,03,11,08,20.60
2021,08,03,11,09,20.60
2021,08,03,11,10,20.60
2021,08,03,11,11,20.50
2021,08,03,11,12,20.50
2021,08,03,11,13,20.40
2021,08,03,11,14,20.40
2021,08,03,11,15,20.40
2021,08,03,11,16,20.40
2021,08,03,11,17,20.40
2021,08,03,11,18,20.40
2021,08,03,11,19,20.40
2021,08,03,11,20,20.40
2021,08,03,11,21,20.40
2021,08,03,11,22,20.40
2021,08,03,11,23,20.40
2021,08,03,11,24,20.40
2021,08,03,11,25,20.40
2021,08,03,11,26,20.30
2021,08,03,11,27,20.30
2021,08,03,11,28,20.20
2021,08,03,11,29,20.20
2021,08,03,11,30,20.20
2021,08,03,11,31,20.20
2021,08,03,11,32,20.10
2021,08,03,11,33,20.10
2021,08,03,11,34,20.10
2021,08,03,11,35,20.10
2021,08,03,11,36,20.10
2021,08,03,11,37,20.20
2021,08,03,11,38,20.20
2021,08,03,11,39,20.20
2021,08,03,11,40,20.20
2021,08,03,11,41,20.10
2021,08,03,11,42,20.10
2021,08,03,11,43,20.10
2021,08,03,11,44,20.10
2021,08,03,11,45,20.10
2021,08,03,11,46,20.10
2021,08,03,11,47,20.10
2021,08,03,11,48,20.10
2021,08,03,11,49,20.10
2021,08,03,11,50,20.10
2021,08,03,11,51,20.10
2021,08,03,11,52,20.10
2021,08,03,11,53,20.20
2021,08,03,11,54,20.20
2021,08,03,11,55,20.20
2021,08,03,11,56,20.20
2021,08,03,11,57,20.20
2021,08,03,11,58,20.30
2021,08,03,11,59,20.30
2021,08,03,12,00,20.30
2021,08,03,12,01,20.40
2021,08,03,12,02,20.40
2021,08,03,12,03,20.40
2021,08,03,12,04,20.40
2021,08,03,12,05,20.40
2021,08,03,12,06,20.40
2021,08,03,12,07,20.50
2021,08,03,12,08,20.50
2021,08,03,12,09,20.50
2021,08,03,12,10,20.60
2021,08,03,12,11,20.60
2021,08,03,12,12,20.60
2021,08,03,12,13,20.70
2021,08,03,12,14,20.70
2021,08,03,12,15,20.70
2021,08,03,12,16,20.70
2021,08,03,12,17,20.80
2021,08,03,12,18,20.80
2021,08,03,12,19,20.80
2021,08,03,12,20,20.80
2021,08,03,12,21,20.90
2021,08,03,12,22,21.00
2021,08,03,12,23,21.00
2021,08,03,12,24,21.10
2021,08,03,12,25,21.10
2021,08,03,12,26,21.20
2021,08,03,12,27,21.20
2021,08,03,12,28,21.30
2021,08,03,12,29,21.30
2021,08,03,12,30,21.40
2021,08,03,12,31,21.50
2021,08,03,12,32,21.60
2021,08,03,12,33,21.60
2021,08,03,12,34,21.70
2021,08,03,12,35,21.70
2021,08,03,12,36,21.70
2021,08,03,12,37,21.80
2021,08,03,12,38,21.80
2021,08,03,12,39,21.80
2021,08,03,12,40,21.80
2021,08,03,12,41,21.80
2021,08,03,12,42,21.80
2021,08,03,12,43,21.80
2021,08,03,12,44,21.70
2021,08,03,12,45,21.70
2021,08,03,12,46,21.60
2021,08,03,12,47,21.50
2021,08,03,12,48,21.40
2021,08,03,12,49,21.30
2021,08,03,12,50,21.20
2021,08,03,12,51,21.10
2021,08,03,12,52,21.00
2021,08,03,12,53,20.90
2021,08,03,12,54,20.80
2021,08,03,12,55,20.80
2021,08,03,12,56,20.70
2021,08,03,12,57,20.70
2021,08,03,12,58,20.70
2021,08,03,12,59,20.60
2021,08,03,13,00,20.60
2021,08,03,13,01,20.60
2021,08,03,13,02,20.60
2021,08,03,13,03,20.50
2021,08,03,13,04,20.40
2021,08,03,13,05,20.30
2021,08,03,13,06,20.30
2021,08,03,13,07,20.20
2021,08,03,13,08,20.10
2021,08,03,13,09,19.90
2021,08,03,13,10,19.70
2021,08,03,13,11,19.60
2021,08,03,13,12,19.50
2021,08,03,13,13,19.30
2021,08,03,13,14,19.20
2021,08,03,13,15,19.10
2021,08,03,13,16,19.00
2021,08,03,13,17,18.80
2021,08,03,13,18,18.80
2021,08,03,13,19,18.80
2021,08,03,13,20,18.70
2021,08,03,13,21,18.60
2021,08,03,13,22,18.60
2021,08,03,13,23,18.50
2021,08,03,13,24,18.50
2021,08,03,13,25,18.40
2021,08,03,13,26,18.40
2021,08,03,13,27,18.50
2021,08,03,13,28,18.50
2021,08,03,13,29,18.60
2021,08,03,13,30,18.60
2021,08,03,13,31,18.70
2021,08,03,13,32,18.80
2021,08,03,13,33,18.80
2021,08,03,13,34,18.90
2021,08,03,13,35,19.00
2021,08,03,13,36,19.00
2021,08,03,13,37,19.10
2021,08,03,13,38,19.20
2021,08,03,13,39,19.30
2021,08,03,13,40,19.50
2021,08,03,13,41,19.50
2021,08,03,13,42,19.60
2021,08,03,13,43,19.80
2021,08,03,13,44,19.90
2021,08,03,13,45,20.00
2021,08,03,13,46,20.10
2021,08,03,13,47,20.20
2021,08,03,13,48,20.30
2021,08,03,13,49,20.40
2021,08,03,13,50,20.40
2021,08,03,13,51,20.40
2021,08,03,13,52,20.50
2021,08,03,13,53,20.50
2021,08,03,13,54,20.40
2021,08,03,13,55,20.40
2021,08,03,13,56,20.40
2021,08,03,13,57,20.30
2021,08,03,13,58,20.30
2021,08,03,13,59,20.20
2021,08,03,14,00,20.20
2021,08,03,14,01,20.10
2021,08,03,14,02,20.10
2021,08,03,14,03,20.10
2021,08,03,14,04,20.20
2021,08,03,14,05,20.20
2021,08,03,14,06,20.30
2021,08,03,14,07,20.40
2021,08,03,14,08,20.40
2021,08,03,14,09,20.50
2021,08,03,14,10,20.60
2021,08,03,14,11,20.70
2021,08,03,14,12,20.80
2021,08,03,14,13,20.90
2021,08,03,14,14,21.00
2021,08,03,14,15,21.10
2021,08,03,14,16,21.10
2021,08,03,14,17,21.20
2021,08,03,14,18,21.30
2021,08,03,14,19,21.30
2021,08,03,14,20,21.40
2021,08,03,14,21,21.40
2021,08,03,14,22,21.50
2021,08,03,14,23,21.60
2021,08,03,14,24,21.60
2021,08,03,14,25,21.70
2021,08,03,14,26,21.70
2021,08,03,14,27,21.70
2021,08,03,14,28,21.70
2021,08,03,14,29,21.80
2021,08,03,14,30,21.80
2021,08,03,14,31,21.80
2021,08,03,14,32,21.80
2021,08,03,14,33,21.80
2021,08,03,14,34,21.80
2021,08,03,14,35,21.70
2021,08,03,14,36,21.70
2021,08,03,14,37,21.70
2021,08,03,14,38,21.60
2021,08,03,14,39,21.60
2021,08,03,14,40,21.60
2021,08,03,14,41,21.50
2021,08,03,14,42,21.40
2021,08,03,14,43,21.30
2021,08,03,14,44,21.20
2021,08,03,14,45,21.10
2021,08,03,14,46,21.10
2021,08,03,14,47,21.00
2021,08,03,14,48,21.00
2021,08,03,14,49,21.00
2021,08,03,14,50,21.10
2021,08,03,14,51,21.10
2021,08,03,14,52,21.10
2021,08,03,14,53,21.10
2021,08,03,14,54,21.10
2021,08,03,14,55,21.10
2021,08,03,14,56,21.10
2021,08,03,14,57,21.10
2021,08,03,14,58,21.10
2021,08,03,14,59,21.10
2021,08,03,15,00,21.10
2021,08,03,15,01,21.10
2021,08,03,15,02,21.00
2021,08,03,15,03,21.00
2021,08,03,15,04,20.90
2021,08,03,15,05,20.90
2021,08,03,15,06,20.80
2021,08,03,15,07,20.80
2021,08,03,15,08,20.70
2021,08,03,15,09,20.60
2021,08,03,15,10,20.60
2021,08,03,15,11,20.60
2021,08,03,15,12,20.60
2021,08,03,15,13,20.50
2021,08,03,15,14,20.50
2021,08,03,15,15,20.50
2021,08,03,15,16,20.50
2021,08,03,15,17,20.50
2021,08,03,15,18,20.60
2021,08,03,15,19,20.60
2021,08,03,15,20,20.50
2021,08,03,15,21,20.50
2021,08,03,15,22,20.50
2021,08,03,15,23,20.40
2021,08,03,15,24,20.50
2021,08,03,15,25,20.60
2021,08,03,15,26,20.70
2021,08,03,15,27,20.80
2021,08,03,15,28,21.00
2021,08,03,15,29,21.10
2021,08,03,15,30,21.20
2021,08,03,15,31,21.30
2021,08,03,15,32,21.30
2021,08,03,15,33,21.20
2021,08,03,15,34,21.10
2021,08,03,15,35,21.00
2021,08,03,15,36,20.90
2021,08,03,15,37,20.80
2021,08,03,15,38,20.80
2021,08,03,15,39,20.70
2021,08,03,15,40,20.70
2021,08,03,15,41,20.70
2021,08,03,15,42,20.60
2021,08,03,15,43,20.60
2021,08,03,15,44,20.70
2021,08,03,15,45,20.70
2021,08,03,15,46,20.80
2021,08,03,15,47,20.80
2021,08,03,15,48,20.90
2021,08,03,15,49,21.00
2021,08,03,15,50,21.00
2021,08,03,15,51,21.00
2021,08,03,15,52,21.00
2021,08,03,15,53,20.90
2021,08,03,15,54,20.90
2021,08,03,15,55,20.80
2021,08,03,15,56,20.80
2021,08,03,15,57,20.80
2021,08,03,15,58,20.90
2021,08,03,15,59,20.90
2021,08,03,16,00,20.90
2021,08,03,16,01,20.90
2021,08,03,16,02,20.80
2021,08,03,16,03,20.80
2021,08,03,16,04,20.80
2021,08,03,16,05,20.70
2021,08,03,16,06,20.70
2021,08,03,16,07,20.70
2021,08,03,16,08,20.60
2021,08,03,16,09,20.60
2021,08,03,16,10,20.70
2021,08,03,16,11,20.70
2021,08,03,16,12,20.70
2021,08,03,16,13,20.60
2021,08,03,16,14,20.60
2021,08,03,16,15,20.60
2021,08,03,16,16,20.70
2021,08,03,16,17,20.80
2021,08,03,16,18,21.00
2021,08,03,16,19,21.10
2021,08,03,16,20,21.30
2021,08,03,16,21,21.40
2021,08,03,16,22,21.60
2021,08,03,16,23,21.70
2021,08,03,16,24,21.90
2021,08,03,16,25,22.00
2021,08,03,16,26,22.20
2021,08,03,16,27,22.40
2021,08,03,16,28,22.60
2021,08,03,16,29,22.70
2021,08,03,16,30,23.00
2021,08,03,16,31,23.20
2021,08,03,16,32,23.50
2021,08,03,16,33,23.70
2021,08,03,16,34,23.90
2021,08,03,16,35,24.10
2021,08,03,16,36,24.20
2021,08,03,16,37,24.40
2021,08,03,16,38,24.50
2021,08,03,16,39,24.60
2021,08,03,16,40,24.70
2021,08,03,16,41,24.80
2021,08,03,16,42,24.90
2021,08,03,16,43,25.00
2021,08,03,16,44,25.20
2021,08,03,16,45,25.30
2021,08,03,16,46,25.30
2021,08,03,16,47,25.30
2021,08,03,16,48,25.40
2021,08,03,16,49,25.40
2021,08,03,16,50,25.40
2021,08,03,16,51,25.50
2021,08,03,16,52,25.60
2021,08,03,16,53,25.70
2021,08,03,16,54,25.80
2021,08,03,16,55,25.90
2021,08,03,16,56,25.90
2021,08,03,16,57,26.00
2021,08,03,16,58,26.10
2021,08,03,16,59,26.20
2021,08,03,17,00,26.20
2021,08,03,17,01,26.30
2021,08,03,17,02,26.30
2021,08,03,17,03,26.40
2021,08,03,17,04,26.40
2021,08,03,17,05,26.40
2021,08,03,17,06,26.50
2021,08,03,17,07,26.50
2021,08,03,17,08,26.50
2021,08,03,17,09,26.60
2021,08,03,17,10,26.60
2021,08,03,17,11,26.60
2021,08,03,17,12,26.60
2021,08,03,17,13,26.60
2021,08,03,17,14,26.60
2021,08,03,17,15,26.60
2021,08,03,17,16,26.60
2021,08,03,17,17,26.60
2021,08,03,17,18,26.60
2021,08,03,17,19,26.60